Dewpoint
63 62 62 62 62 62 63 62 62 62 62 62 62 62 62 62 61 61 60 60 60 60 59 59 59 59 59 59 59 60 60 61 62 62 62 63 63 63 62 62 61 60 60 60 60 60 61 59 55 51 51 52 52 53 54 56 57 57 55 57 56 55 54 60 62 63 60 59 59 59 60 59 59 58 58 59 59 59 59 59 59 59 60 60 60 60 60 59 59 58 57 57 57 57 57 56 56 56 56 56 56 56 56
62 62 61 62 62 62 63 62 62 62 62 62 62 62 62 62 61 61 61 61 60 60 60 60 59 59 59 59 59 59 60 60 61 62 62 62 62 63 62 62 61 61 61 61 60 61 61 58 54 51 51 51 52 52 54 56 56 56 55 55 55 55 56 61 63 62 60 60 59 59 60 60 60 59 59 59 59 59 60 59 59 59 60 60 60 60 60 59 59 58 57 57 57 57 57 56 56 56 56 56 56 56 56
62 62 61 61 62 62 63 63 62 62 62 62 62 62 63 63 62 62 62 62 61 61 60 60 60 60 60 59 59 59 59 60 60 61 62 62 62 62 62 62 62 61 61 61 61 61 61 59 55 51 51 51 51 52 53 55 56 55 55 55 55 55 57 61 63 62 61 60 59 59 60 60 60 60 60 59 59 59 60 60 60 59 59 59 59 59 59 59 59 58 58 57 57 57 57 56 56 56 56 56 56 56 56
62 62 61 62 62 63 63 63 63 63 62 62 63 63 64 63 63 63 63 63 62 62 61 61 60 60 60 60 59 59 59 59 60 61 61 62 62 62 62 62 62 62 62 62 62 61 60 59 56 52 51 51 51 52 54 56 56 56 55 56 56 56 60 62 63 62 61 60 60 60 60 60 61 62 61 60 60 60 60 60 60 59 59 58 58 59 59 59 58 58 58 58 58 58 57 57 56 56 56 56 56 56 55
63 62 62 62 63 63 63 63 63 63 63 63 64 64 64 64 64 64 64 63 63 62 62 61 61 61 60 60 60 59 59 59 60 60 61 61 61 61 61 61 62 62 62 62 62 61 59 58 56 52 50 51 51 52 53 56 57 57 56 55 56 57 61 63 63 62 61 60 60 60 60 60 61 62 62 61 60 60 60 60 59 59 58 58 58 58 58 58 58 58 58 58 58 58 58 57 57 56 56 56 56 55 55
63 63 63 63 63 64 64 64 64 63 63 64 64 65 65 64 64 64 64 63 63 62 62 62 61 61 61 61 60 60 59 59 59 60 60 61 61 61 61 61 61 62 63 63 63 62 58 55 52 51 50 50 51 52 53 55 56 56 55 55 56 59 62 62 62 61 61 60 60 60 60 60 61 61 62 61 61 61 60 60 59 59 58 58 58 57 57 58 58 58 58 58 58 58 58 58 58 57 56 56 56 55 55
64 64 63 63 63 64 64 64 64 64 64 64 64 65 65 64 64 64 63 63 62 62 62 62 62 62 62 61 61 60 60 59 59 59 60 60 61 61 61 61 61 62 63 64 64 62 58 52 50 50 50 50 50 51 51 53 55 55 55 55 57 60 62 62 61 61 61 60 60 60 60 60 61 61 61 61 61 61 61 60 60 59 59 58 58 58 57 57 57 58 58 58 58 58 58 58 58 58 57 56 56 56 55
64 64 64 64 64 64 64 64 64 65 64 64 64 64 64 64 64 63 63 62 62 62 62 62 62 62 62 62 62 61 60 60 59 59 60 60 61 61 61 61 61 62 63 64 64 63 60 54 51 50 50 50 50 50 51 51 53 54 54 55 58 61 62 62 61 61 61 60 60 60 60 60 60 60 61 61 61 61 61 61 60 60 59 59 59 58 58 58 57 57 57 58 58 58 58 58 58 58 58 57 57 56 56
64 64 64 64 64 64 64 64 64 65 65 65 64 64 64 63 63 63 62 62 62 62 62 62 62 62 62 62 62 62 61 60 60 59 59 60 60 61 61 60 61 62 63 64 65 64 62 56 52 50 50 50 51 51 52 51 51 52 53 55 57 60 62 62 62 61 61 61 60 60 60 60 60 60 60 60 61 61 62 61 61 60 60 60 59 59 58 58 58 58 57 58 58 58 58 58 58 58 58 58 57 57 56
65 65 64 64 64 64 64 64 64 64 65 64 64 64 63 63 63 62 62 62 62 61 61 61 61 61 61 61 61 62 62 61 60 60 60 60 60 61 61 61 61 62 63 65 65 64 63 58 53 50 50 50 50 51 54 51 51 51 52 55 58 60 62 63 63 62 62 61 61 60 60 60 60 60 60 60 60 61 61 61 61 61 60 60 60 59 59 59 58 58 58 58 58 58 58 58 58 58 58 58 58 58 57
65 65 65 64 64 64 64 64 64 64 64 64 64 64 63 63 62 62 62 62 62 61 61 61 61 61 61 61 61 61 61 61 60 60 60 60 60 60 61 61 61 62 63 65 65 65 64 58 53 51 50 50 51 52 52 51 52 52 52 55 58 60 62 63 63 63 62 62 61 61 60 60 60 60 60 60 60 60 60 61 61 61 61 60 60 60 59 59 59 59 58 58 58 58 58 58 58 58 58 58 58 58 58
65 65 65 65 64 64 64 64 64 64 64 64 64 64 63 63 62 62 62 62 62 62 62 61 61 61 61 60 60 61 61 61 60 60 60 60 60 60 61 61 61 62 64 65 65 64 63 57 54 51 50 50 51 51 51 51 51 51 51 55 57 60 62 63 64 63 62 62 61 61 61 60 60 60 60 60 60 60 60 60 61 61 61 61 60 60 60 60 59 59 59 59 59 59 58 58 58 58 58 58 58 58 58
65 65 65 65 65 64 64 64 64 64 64 64 64 64 63 63 63 63 62 62 62 62 62 62 61 61 61 60 60 60 60 60 60 60 60 60 60 61 61 61 62 63 64 65 65 63 60 56 53 52 51 51 51 50 50 50 50 50 51 55 57 59 61 63 64 64 63 62 62 61 61 61 60 60 60 60 60 60 60 60 60 60 61 61 60 60 60 60 60 60 59 59 59 59 58 58 58 58 58 58 58 58 58
66 66 66 66 65 65 65 65 64 64 64 64 64 64 64 63 63 63 63 63 63 63 62 62 62 61 61 60 60 60 60 60 60 60 60 60 60 61 61 61 62 63 64 65 63 60 57 54 53 52 52 52 51 51 52 51 50 50 52 55 56 58 60 63 64 64 63 62 62 62 62 61 61 61 60 60 60 60 60 60 60 60 60 60 60 60 60 60 60 60 60 60 59 59 58 58 58 58 58 58 58 57 58
66 66 66 66 66 65 65 65 65 64 64 64 64 64 64 64 64 64 64 64 63 63 63 62 62 62 61 61 60 60 60 60 60 60 60 60 60 61 61 62 63 64 64 63 60 56 55 53 53 53 53 52 51 51 53 51 50 50 53 55 56 58 60 62 63 64 63 62 62 62 62 62 62 61 61 61 60 60 60 60 60 60 60 60 60 60 60 60 60 60 60 60 59 59 59 58 58 58 58 57 57 57 57
65 65 65 65 66 66 65 65 65 65 64 64 64 64 64 64 64 64 64 64 64 64 63 63 62 62 61 61 61 60 60 60 60 60 60 60 61 61 62 63 63 63 63 60 57 55 54 53 53 53 54 53 51 51 51 50 50 51 54 54 56 57 59 61 63 64 63 63 62 62 62 62 62 62 62 61 61 61 61 60 60 60 60 60 60 60 60 60 60 60 60 60 59 59 59 59 59 58 58 58 58 58 58
63 63 65 65 66 66 65 65 65 65 65 64 64 64 64 64 64 64 64 64 64 64 64 63 63 62 62 61 61 60 60 59 59 60 60 61 62 62 63 63 63 62 60 58 56 55 54 53 53 54 54 53 52 52 52 49 50 52 54 54 55 56 58 60 62 64 64 63 62 62 62 62 62 63 62 62 62 61 61 61 61 61 61 61 60 60 60 60 59 59 59 59 59 59 59 59 59 59 59 59 59 58 58
62 63 65 65 65 66 65 65 65 65 65 64 64 64 64 64 64 65 65 65 65 64 64 64 63 63 62 62 62 60 58 57 57 58 59 61 62 62 63 63 62 60 57 56 56 55 53 53 54 55 55 54 53 54 53 50 51 52 53 54 55 56 57 60 61 63 64 63 63 62 62 62 62 63 63 63 62 62 61 61 61 61 61 61 61 60 60 60 60 59 59 59 59 59 59 59 59 60 60 60 59 59 59
62 63 64 65 65 65 65 65 65 65 65 65 65 65 65 65 65 65 65 65 65 65 64 64 64 63 62 62 61 60 57 55 55 56 56 58 60 61 61 61 60 57 56 55 55 54 53 54 55 56 56 55 55 54 54 52 52 53 53 54 55 56 57 59 61 62 63 63 63 62 62 62 62 63 63 63 63 62 62 61 61 61 61 61 61 61 60 60 60 60 59 59 59 59 59 59 60 60 60 60 60 60 60
61 62 64 64 65 65 65 65 65 65 65 65 65 64 65 64 64 65 65 65 65 65 65 64 64 63 63 61 60 57 56 55 55 55 56 56 57 57 57 57 56 56 55 54 54 54 54 55 56 56 56 56 55 55 54 53 53 54 54 54 55 56 57 58 60 62 63 63 63 63 62 62 62 63 63 63 63 63 62 62 61 61 61 61 61 61 61 60 60 60 60 60 59 59 59 59 60 60 60 60 60 60 60
60 60 61 63 64 64 65 65 65 65 65 65 64 64 64 64 64 64 65 64 64 65 65 65 64 62 60 59 57 56 55 54 54 55 56 55 55 55 55 55 55 55 56 54 53 54 56 56 56 56 56 56 56 55 55 55 55 55 55 55 55 56 57 58 60 61 63 63 63 63 62 62 62 62 63 63 63 63 62 62 62 61 61 60 60 60 60 60 60 60 60 60 60 60 60 60 60 60 60 60 60 60 60
60 60 60 61 61 62 63 63 63 63 63 64 64 63 62 62 62 63 63 63 62 62 62 62 61 59 57 56 56 55 54 54 54 54 56 55 54 54 55 54 55 55 54 53 54 55 56 56 56 56 56 56 56 56 55 56 56 56 56 55 55 56 56 58 59 61 62 63 63 63 63 62 62 62 63 63 63 63 63 62 62 61 61 60 60 60 60 60 60 60 60 60 60 60 60 60 60 60 60 60 60 60 60
60 60 60 60 60 61 61 61 61 62 62 63 63 62 62 61 60 60 61 60 60 59 58 59 58 57 56 56 55 55 55 55 55 55 56 56 55 55 55 54 54 54 53 53 54 55 56 56 56 56 56 56 56 56 56 56 57 56 56 56 56 56 56 58 59 60 62 63 63 63 63 63 63 63 63 63 63 63 63 62 62 62 61 61 60 60 60 60 60 60 60 60 60 60 60 60 60 60 60 60 60 60 60
60 60 60 60 60 60 61 60 61 61 61 61 62 61 61 60 60 60 60 60 59 58 57 57 57 57 56 55 55 55 55 55 56 56 56 56 56 55 55 53 53 52 53 52 53 54 54 55 56 56 56 56 56 56 56 57 57 57 56 56 56 56 56 58 59 60 61 63 63 64 63 63 63 63 63 63 63 63 63 63 62 62 61 61 60 60 60 60 60 60 60 60 60 60 60 60 60 60 60 60 60 60 60
60 60 60 60 60 60 60 60 60 60 61 61 61 61 61 60 60 59 60 60 59 59 58 57 57 57 56 56 55 55 55 55 55 55 56 56 55 55 55 53 52 52 52 51 51 52 53 53 54 55 56 56 56 56 56 56 57 56 56 56 56 56 56 57 59 60 61 62 63 64 64 63 63 63 63 63 63 63 63 63 62 62 62 61 61 61 60 60 60 60 60 60 60 60 60 60 60 60 60 60 60 60 60
60 60 60 60 60 60 60 60 60 60 60 60 60 60 60 60 60 60 60 60 60 59 58 58 57 56 56 56 56 55 55 55 55 55 54 55 55 54 55 54 53 52 52 51 51 51 51 52 53 54 54 55 55 55 55 56 56 56 56 56 56 56 56 57 58 60 61 62 63 64 64 64 63 63 63 63 63 63 63 63 63 63 62 62 62 61 61 61 61 61 61 61 60 60 60 60 60 60 60 60 60 60 60
60 60 60 60 60 60 60 60 60 60 60 60 60 60 60 60 60 60 59 60 59 59 58 57 56 56 56 55 56 56 55 56 56 55 55 55 55 55 55 54 54 53 52 52 51 51 51 51 51 52 53 54 54 54 54 55 56 56 56 56 55 56 56 56 58 59 60 61 62 63 64 63 64 64 64 64 64 64 64 64 64 63 63 62 62 62 62 62 62 61 61 61 61 61 61 61 61 61 60 60 60 60 60
60 60 59 59 59 59 60 60 60 60 60 60 60 60 60 60 60 59 59 59 59 59 58 57 56 56 56 56 56 56 56 56 56 56 56 56 56 55 55 55 55 54 53 53 52 51 51 51 51 51 52 53 53 53 53 53 54 55 55 55 55 55 56 56 57 58 59 60 61 62 63 64 64 64 64 64 64 64 64 64 64 64 64 63 63 62 62 62 62 62 62 61 61 61 61 61 61 61 61 61 60 60 60
60 60 59 59 59 59 59 59 60 60 60 60 60 60 60 60 59 59 59 59 58 58 58 57 57 56 56 56 56 56 56 56 56 55 56 56 56 56 55 55 55 55 54 54 53 52 51 51 50 51 51 52 52 52 52 52 53 54 55 55 55 55 55 56 56 57 58 59 60 61 62 63 64 64 64 64 64 64 64 64 64 64 64 64 64 63 63 63 63 62 62 62 62 61 61 61 61 61 61 61 61 60 60
59 59 59 58 58 59 59 59 59 60 60 59 59 60 60 59 59 59 58 58 58 58 57 57 56 56 55 56 56 56 56 56 56 56 55 56 56 55 55 55 55 54 54 54 53 53 51 51 50 50 51 51 52 52 52 52 52 54 54 55 55 55 55 56 56 57 57 58 59 60 61 62 63 64 64 64 64 64 64 64 64 65 65 64 64 64 64 63 63 63 63 62 62 62 61 61 61 61 61 61 61 61 61
59 59 59 58 58 58 59 59 59 59 59 59 59 59 59 59 59 58 58 58 57 57 57 56 56 56 55 55 55 56 56 56 56 56 55 55 55 55 54 55 54 54 54 54 53 52 51 51 50 50 50 51 51 51 51 51 52 53 54 54 55 55 55 56 56 56 57 58 58 59 60 61 62 63 64 64 64 64 64 64 64 64 65 65 65 65 64 64 64 64 63 63 63 62 62 62 62 62 62 62 61 61 61
59 59 58 58 58 58 58 59 59 59 59 59 59 59 59 58 58 58 58 57 57 57 57 57 56 56 56 56 56 56 56 56 56 55 55 55 54 54 54 54 54 54 54 53 52 51 51 50 50 50 50 50 51 51 51 51 51 51 53 54 55 55 55 56 56 56 57 57 58 59 59 60 61 62 63 63 64 64 64 64 64 64 65 65 65 65 65 65 64 64 64 64 63 63 63 63 62 62 62 62 62 62 62
58 58 58 58 58 58 58 58 58 58 59 58 58 58 58 58 57 57 57 57 57 57 57 57 56 56 56 56 55 55 55 54 54 55 54 54 54 54 54 53 53 53 53 52 52 51 50 49 49 49 49 50 50 51 51 51 50 50 51 53 54 54 55 55 56 56 56 57 57 58 59 59 60 60 62 63 63 64 64 64 64 64 64 65 65 65 65 65 65 65 64 64 64 64 63 63 63 63 63 63 62 62 62
58 58 58 58 58 58 58 58 58 58 58 58 58 58 57 57 57 57 56 56 56 56 56 56 56 56 56 55 55 55 55 54 54 54 54 53 53 53 53 52 52 52 52 51 51 51 50 49 48 48 48 48 49 49 50 50 50 49 49 50 51 53 54 54 55 55 56 56 57 57 58 59 59 60 60 61 62 63 64 64 64 64 64 65 65 65 65 65 65 65 65 65 64 64 64 64 64 63 63 63 63 63 62
58 58 58 58 58 58 58 58 58 58 58 58 58 57 57 57 56 56 56 56 55 55 55 55 54 54 54 54 54 54 54 52 52 53 52 52 52 52 51 51 51 51 51 50 50 50 49 48 48 47 47 47 47 47 47 48 48 48 47 49 50 51 53 53 54 54 55 55 56 56 57 58 59 59 60 60 61 62 63 63 64 64 64 64 65 65 65 65 65 65 65 65 65 65 64 64 64 64 64 63 63 63 63
58 58 58 57 57 57 58 57 58 58 58 58 57 57 56 56 56 56 56 56 56 55 55 54 54 54 54 54 54 54 53 52 52 52 51 51 51 51 51 50 50 50 49 49 49 48 48 47 47 47 46 45 45 45 45 45 45 45 45 46 47 48 49 50 51 51 53 54 55 55 56 57 58 59 59 60 60 60 61 62 62 63 63 64 64 64 65 65 65 65 65 65 65 65 65 65 64 64 64 64 63 63 63
58 58 57 57 57 57 57 57 57 57 57 57 57 57 56 56 56 56 55 55 55 55 55 55 55 55 56 55 55 54 54 53 52 52 52 51 51 51 50 50 49 49 48 48 48 48 47 47 47 46 45 45 44 43 43 42 42 42 42 42 42 43 44 44 45 47 50 52 53 54 55 56 56 57 58 59 60 60 60 60 61 62 62 63 63 64 64 64 65 65 65 65 65 65 65 65 65 65 64 64 64 64 63
57 57 57 57 57 57 57 57 57 57 57 57 57 57 57 56 56 56 55 55 55 54 54 54 55 55 55 55 55 54 54 53 53 52 52 52 51 51 51 50 49 48 48 48 48 47 47 47 47 46 46 45 44 43 42 42 42 41 41 41 41 40 40 41 41 42 45 48 51 52 53 54 55 56 57 58 59 59 60 60 60 60 61 62 62 63 63 64 64 64 65 65 65 65 65 65 65 65 65 65 64 64 64
57 57 57 57 57 57 57 57 57 57 57 57 57 57 57 56 56 56 55 55 55 54 54 54 54 54 54 54 54 54 54 54 53 53 52 52 52 51 51 51 50 49 48 48 48 48 47 47 47 47 47 46 45 44 43 43 42 41 41 40 40 40 40 40 40 40 41 43 46 49 51 52 53 54 56 56 57 58 59 59 60 60 60 61 61 62 62 63 63 63 64 64 65 65 65 65 65 65 65 65 65 65 64
57 57 57 57 57 57 57 57 57 57 57 57 57 57 57 56 56 56 56 55 55 55 54 54 53 53 53 53 53 53 53 53 53 52 52 52 52 51 51 51 51 50 49 49 49 48 48 48 48 47 47 47 47 46 45 44 44 42 42 42 41 41 40 41 41 40 40 40 42 45 49 51 51 52 54 55 56 56 57 58 59 59 60 60 60 61 61 62 62 63 63 64 64 64 64 64 65 65 65 65 65 65 65
57 57 57 57 57 57 57 57 57 57 57 57 57 57 57 56 56 56 56 56 55 55 54 54 53 53 53 53 53 53 53 53 52 52 52 52 52 51 51 51 51 51 50 50 50 49 49 49 48 48 48 48 48 47 47 46 46 45 44 43 42 42 42 43 43 42 41 41 41 42 45 48 50 51 52 53 54 55 56 57 57 58 59 60 60 60 60 61 61 62 62 63 63 63 63 63 64 64 64 64 64 65 65
58 58 57 57 57 57 57 57 57 57 57 57 57 57 57 56 56 56 56 56 55 55 55 54 54 53 53 53 53 53 53 53 52 52 52 51 51 51 51 51 51 51 51 51 50 50 50 49 49 49 49 49 49 48 48 48 47 47 46 45 45 44 44 45 44 43 42 42 42 42 43 47 49 51 51 52 53 53 54 55 56 57 58 59 59 60 60 60 61 61 62 62 62 62 62 62 62 62 63 63 63 63 64
58 58 58 57 57 57 57 57 56 56 56 56 56 56 56 56 56 56 56 56 55 55 55 54 54 53 53 53 53 53 52 52 52 52 52 51 51 51 51 51 51 51 51 51 51 50 50 50 50 50 50 50 49 49 49 49 48 48 48 47 47 46 46 45 44 44 43 43 43 42 42 45 48 50 51 51 52 52 53 54 55 56 56 57 58 59 60 60 60 61 61 61 61 62 62 62 61 61 62 62 62 62 62
58 58 58 58 57 57 57 57 57 56 56 56 56 56 56 56 56 56 56 56 55 55 55 54 54 53 53 53 53 52 52 52 52 52 52 51 51 51 51 51 51 51 51 51 51 51 51 51 51 51 51 51 50 50 50 50 49 49 49 48 48 47 47 47 46 45 45 45 44 44 44 44 45 47 50 50 51 52 52 53 54 55 56 56 57 58 59 59 60 60 60 61 61 61 61 61 61 61 61 61 61 61 61
58 58 58 58 57 57 57 57 57 56 56 56 56 56 56 56 56 56 56 56 55 55 55 54 54 54 53 53 53 52 52 52 52 52 51 51 51 51 51 51 51 51 51 51 51 51 51 51 52 52 51 51 51 51 51 51 50 50 50 49 49 49 48 48 47 47 47 46 46 45 45 45 44 45 46 47 47 48 50 51 52 53 54 55 56 56 57 58 59 59 60 60 60 60 60 60 60 60 60 60 60 60 60
58 58 58 58 57 57 57 57 57 56 56 56 56 56 56 56 56 56 56 56 55 55 55 54 54 54 54 53 53 53 52 52 52 52 52 51 51 51 51 51 51 51 51 51 51 51 51 52 52 52 52 51 51 51 51 51 51 51 51 50 50 50 49 49 49 48 48 47 47 47 46 45 45 44 44 44 43 44 45 48 51 52 53 54 55 55 56 56 57 58 59 59 60 60 60 60 60 60 60 60 60 59 60
58 58 58 58 57 57 57 57 57 56 56 56 56 56 56 56 56 56 56 56 55 55 55 54 54 54 54 54 54 53 52 52 52 52 52 51 51 51 51 51 51 51 51 51 51 51 52 52 52 52 52 52 52 52 52 52 52 51 51 51 51 50 50 50 49 49 49 48 48 47 47 46 45 44 44 43 42 42 42 45 47 50 51 53 53 54 55 55 56 56 57 58 59 59 59 60 60 60 59 59 59 59 59
58 58 58 58 57 57 57 57 57 57 56 56 56 56 56 56 56 56 56 56 55 55 55 55 55 54 54 53 53 53 53 52 52 52 51 51 51 51 51 51 51 51 51 51 51 51 52 52 52 52 52 52 52 52 52 52 52 52 51 51 51 51 51 50 50 49 49 49 48 47 47 46 46 45 44 44 43 42 42 42 44 47 50 51 52 53 54 54 55 55 56 57 58 58 59 59 59 59 59 59 59 59 59
58 58 58 58 57 57 57 57 57 57 56 56 56 56 56 56 56 56 56 56 56 55 55 56 55 55 54 54 53 53 53 52 52 52 51 51 51 51 51 51 51 51 51 51 51 51 52 52 51 51 51 52 52 52 52 52 52 52 51 51 51 51 51 51 50 50 50 49 49 48 47 47 46 45 44 44 43 42 42 42 42 43 47 49 51 52 53 53 53 54 55 56 56 57 58 58 58 59 59 59 59 59 59
58 58 58 58 57 57 57 57 57 57 57 56 56 56 56 56 56 56 56 56 56 56 55 55 55 55 54 54 54 54 53 53 52 52 51 51 51 51 51 51 51 51 51 51 51 51 51 51 51 51 51 51 51 51 52 52 52 51 51 51 51 51 51 51 51 50 50 50 49 48 48 47 47 46 45 45 44 43 42 42 42 42 43 45 47 49 50 51 53 53 54 54 55 56 56 57 58 58 58 59 59 59 59
58 58 58 58 57 57 57 57 57 57 57 57 57 56 56 56 56 56 56 56 56 55 55 55 55 55 55 55 54 54 54 53 53 52 52 51 51 51 51 51 51 51 51 51 51 51 51 51 51 51 51 51 51 51 51 51 51 51 51 51 51 51 51 51 51 50 50 50 49 49 48 48 47 47 46 45 44 44 43 42 42 42 42 42 42 43 45 47 49 51 53 53 54 54 55 56 57 57 58 59 59 59 59
58 58 58 58 58 58 57 57 57 57 57 57 56 56 56 56 56 56 56 56 55 55 55 55 55 55 55 55 55 55 54 54 53 52 52 52 52 51 51 51 51 50 50 50 50 50 50 50 50 50 51 51 51 51 51 51 51 51 51 51 51 51 51 51 51 50 50 50 50 49 49 48 48 47 47 46 45 45 44 43 43 42 42 42 42 42 43 44 46 48 51 52 53 53 54 55 56 56 57 58 58 59 59
59 59 58 58 58 58 58 58 57 57 57 57 56 56 56 56 56 56 56 56 55 55 55 55 55 55 55 55 55 55 55 54 54 53 53 52 52 52 52 52 51 50 50 49 49 49 49 49 49 50 50 50 50 50 51 51 51 51 51 51 51 51 51 50 50 50 50 50 49 49 49 49 48 48 47 47 46 45 45 44 43 43 42 42 42 42 42 44 46 47 49 50 51 53 53 54 55 56 56 57 58 58 59
60 59 59 59 59 58 58 58 58 58 57 57 57 57 56 56 56 56 56 56 56 55 55 55 55 55 54 54 54 54 55 55 54 54 53 53 52 52 52 51 51 51 51 51 50 49 48 48 48 48 49 49 50 50 50 50 50 50 50 50 50 50 50 50 50 50 50 50 49 49 49 49 49 48 48 47 47 46 46 45 44 44 43 43 43 42 42 43 45 47 47 48 49 50 52 53 54 55 56 56 57 57 58
60 60 60 59 59 59 59 59 59 58 58 58 58 57 57 57 57 57 56 56 56 56 56 56 55 55 55 54 54 54 54 55 55 54 54 53 53 52 52 51 51 51 51 51 50 49 48 48 48 49 49 49 49 49 49 49 49 49 50 50 50 50 50 50 50 49 49 49 49 49 49 49 49 49 48 48 47 47 47 46 45 45 44 44 44 44 44 45 46 46 46 46 47 48 49 52 53 53 54 55 56 56 57
60 60 60 60 60 60 59 59 59 59 59 59 58 58 58 58 58 57 57 57 57 56 56 56 56 56 56 56 55 55 55 54 54 54 54 54 53 53 52 52 51 51 50 49 49 48 48 48 48 49 49 49 49 48 48 48 48 48 49 49 49 49 49 49 49 49 49 49 49 49 49 49 49 49 48 48 48 48 47 47 47 46 46 45 45 45 44 44 44 44 45 45 46 47 48 51 51 52 53 54 55 56 56
59 59 59 59 60 60 60 59 59 59 59 59 59 59 59 59 59 60 59 59 58 58 58 58 57 57 57 57 57 56 56 55 55 55 55 54 54 54 53 52 52 51 50 49 48 48 49 49 49 49 49 49 49 49 49 49 48 48 48 48 48 48 49 49 49 48 48 48 48 48 49 49 49 49 49 49 48 48 48 48 48 47 47 47 46 45 45 45 45 45 45 45 45 46 48 50 51 52 52 53 54 55 56
58 58 59 59 59 59 59 59 59 59 59 59 59 60 61 61 62 62 62 61 60 60 60 59 59 59 59 59 59 58 57 56 55 55 55 55 55 54 54 54 53 53 52 51 51 50 50 50 50 50 49 49 50 50 49 49 49 48 48 48 48 48 48 48 48 48 48 48 48 48 48 48 48 48 48 48 48 48 49 48 48 48 48 48 47 47 47 46 47 46 46 46 46 47 49 50 51 51 52 53 54 55 55
56 56 57 58 58 58 59 59 59 59 59 60 60 61 62 63 63 63 63 62 62 61 61 61 61 61 60 60 60 59 57 56 56 55 55 55 55 55 55 54 54 54 53 53 52 52 51 51 51 50 50 49 49 49 50 50 50 49 49 49 48 48 47 47 47 47 47 48 48 48 48 48 48 48 48 48 48 48 48 49 49 49 49 49 48 48 48 48 48 48 48 48 48 49 49 50 51 51 52 53 54 54 55
53 54 55 55 56 56 56 57 58 59 59 60 61 62 62 62 63 63 63 63 63 62 62 62 62 61 61 61 60 59 58 57 56 56 56 56 56 55 55 55 55 54 54 54 53 53 52 52 51 51 51 50 50 49 49 50 50 50 50 50 49 48 48 48 47 47 47 47 47 47 47 47 48 48 48 48 48 48 48 49 49 49 49 49 49 48 49 48 48 49 49 49 50 50 50 51 51 51 52 53 54 55 55
51 52 53 52 52 52 53 54 55 56 57 59 60 61 62 62 62 62 62 62 62 62 62 62 62 62 62 61 60 60 59 58 58 57 57 57 56 56 56 56 56 55 55 55 54 54 53 53 53 52 52 51 51 51 50 50 50 50 51 51 50 50 49 49 49 48 48 48 48 47 47 47 47 48 48 48 48 48 48 48 49 49 49 49 49 49 49 49 49 49 49 49 50 51 51 51 51 52 53 53 54 55 55